Location: Brunnen
(48.6541°N, 10.9920°E)
Time: 22:21:03
(UTC+00:00)

Cosmos 1726 - Pass Details

Date: 01 June 2020
Orbit: 483 x 498 km, 82.5° (Epoch: 08 July)

Event Time Altitude Azimuth Distance (km) Brightness Sun altitude
Rises 21:25:53 0° 1° (N) 2,590 7.0 -15.1°
Reaches altitude 10° 21:28:17 10° 15° (NNE) 1,705 5.6 -15.3°
Maximum altitude 21:31:23 24° 71° (ENE) 1,061 3.7 -15.5°
Enters shadow 21:32:50 19° 105° (ESE) 1,229 3.7 -15.6°
